Dewpoint
71 73 73 72 72 71 72 73 73 74 73 73 71 72 73 72 72 71 70 70 71 71 72 72 72 72 72 72 73 72 72 73 73 73 72 71 71 71 71 71 70 71 71
70 72 73 73 72 73 73 73 73 73 73 72 72 73 71 72 72 71 71 70 72 70 71 72 72 71 71 72 72 73 73 73 73 72 71 71 71 71 72 71 70 71 70
70 73 73 73 73 73 74 73 73 73 72 73 73 73 71 72 72 71 72 70 70 71 70 71 71 71 71 72 72 72 71 71 71 71 71 71 71 71 70 71 71 70 71
71 72 73 73 73 73 73 74 74 73 72 73 73 73 72 71 71 71 71 71 71 71 71 70 71 71 71 72 72 71 70 70 70 71 68 69 69 71 70 70 69 69 71
71 71 72 74 74 73 73 73 73 73 72 73 73 73 72 72 71 72 71 70 71 70 70 70 70 71 71 71 71 71 70 70 69 68 69 69 70 70 71 70 70 70 70
71 73 74 74 74 73 73 73 73 73 73 73 73 72 71 71 71 70 71 71 70 70 69 69 70 70 70 71 71 71 70 69 69 70 70 71 71 71 71 70 71 71 70
71 73 74 74 74 73 73 73 73 73 72 72 73 72 71 71 72 71 70 71 70 70 69 69 69 70 70 69 71 71 70 70 69 70 70 71 71 70 70 69 71 71 68
70 72 73 74 74 73 73 73 73 72 72 73 73 72 72 72 71 70 70 70 70 70 70 70 70 70 69 69 69 70 70 70 69 69 70 71 71 71 70 71 70 67 69
69 71 73 73 73 73 73 73 73 73 72 73 72 72 72 71 71 70 70 70 70 70 70 70 70 70 70 68 69 69 69 70 69 69 70 71 71 69 70 70 70 70 71
69 70 71 72 73 73 73 73 73 73 73 73 73 72 71 70 70 70 72 71 70 70 70 70 70 71 70 69 69 70 69 69 69 70 71 71 71 70 70 71 70 71 71
66 67 70 71 71 72 72 72 73 73 72 73 72 71 70 69 70 70 71 70 70 70 70 70 71 71 71 70 70 69 70 68 68 70 71 71 71 70 70 69 71 68 69
65 66 67 70 71 71 71 72 72 72 73 73 71 70 70 69 69 70 71 71 69 70 70 70 70 70 70 69 70 69 70 67 69 70 71 72 72 70 70 70 70 70 70
63 64 64 68 70 68 71 72 72 72 72 70 69 69 70 70 69 70 71 70 70 70 69 71 70 69 67 69 70 69 66 66 69 70 72 72 71 70 70 71 71 69 70
59 63 65 67 68 68 71 71 71 70 71 69 68 69 70 69 66 67 69 70 69 70 68 68 69 70 70 68 68 68 65 68 69 71 72 72 70 71 70 70 70 70 70
59 63 63 67 68 69 70 69 69 69 70 68 68 68 69 70 67 68 70 69 69 70 70 68 69 68 67 67 66 64 64 66 69 71 72 72 72 71 70 71 70 71 70
60 60 66 66 67 69 68 68 67 67 67 67 68 65 66 69 69 70 68 67 69 68 67 67 69 70 67 66 62 65 63 64 66 69 70 71 72 72 71 69 69 69 68
60 61 65 64 65 69 66 67 68 67 67 67 68 68 68 70 67 70 70 69 69 69 70 67 68 67 66 65 62 64 66 65 64 66 68 69 70 72 71 68 68 68 67
62 62 63 65 68 68 67 70 68 67 68 69 69 69 71 71 69 69 66 69 68 69 66 62 66 64 66 65 65 65 66 67 67 66 67 68 68 68 69 69 69 69 68
61 63 62 63 66 65 67 68 66 66 68 67 68 69 69 71 69 66 65 68 71 67 66 65 65 65 63 63 62 62 64 66 66 66 68 68 68 68 69 70 70 70 69
61 61 63 65 66 66 68 67 66 65 68 71 69 69 72 70 70 69 68 65 68 66 65 68 63 63 63 61 61 62 63 64 65 65 67 69 69 68 68 69 71 71 71
62 61 64 66 66 68 67 66 68 66 67 70 70 71 71 70 72 69 70 70 68 63 66 69 66 65 61 62 61 62 61 62 62 63 63 65 67 68 68 68 69 69 69
62 61 64 66 67 68 68 68 68 68 67 68 70 69 72 70 71 70 68 70 69 65 67 66 63 61 66 61 60 62 57 55 58 59 62 62 62 67 68 68 69 68 68
62 63 65 68 68 69 67 68 71 69 67 66 69 69 72 72 71 72 70 70 67 70 69 67 66 67 65 64 61 59 58 56 61 61 59 60 59 65 65 65 69 68 68
61 63 67 69 68 69 68 67 67 66 65 66 69 70 71 72 71 70 71 71 70 68 69 68 69 67 65 62 64 60 62 60 56 56 60 61 59 61 61 63 63 62 65
62 62 67 69 68 67 69 67 66 67 68 67 68 69 71 72 71 71 71 72 70 69 69 69 68 68 69 69 66 63 60 59 61 58 57 60 62 61 62 63 62 63 62
62 62 65 70 68 67 68 70 66 67 66 67 67 69 70 72 71 73 70 71 70 70 70 70 71 69 68 70 69 68 61 59 59 59 60 60 57 59 62 62 62 64 63
Wind_Speed
13 15 14 10 9 11 12 12 14 16 16 16 15 14 16 16 16 15 14 13 13 14 14 14 15 15 14 16 17 18 19 18 19 20 20 19 17 15 20 22 20 19 21
20 15 14 14 14 14 14 15 16 17 17 16 14 14 15 14 14 15 14 14 16 14 13 14 15 14 13 14 15 15 17 15 17 21 21 21 21 20 22 21 20 19 19
20 16 16 16 16 16 15 17 18 18 17 14 14 15 14 14 13 15 14 13 14 15 14 14 14 14 14 14 14 14 14 13 16 18 21 16 17 20 20 20 20 20 18
22 17 16 17 16 15 15 16 18 18 16 14 15 14 13 13 14 14 15 14 14 15 16 15 16 14 14 14 13 13 12 9 8 14 14 16 17 18 19 19 18 18 17
23 20 17 17 16 16 16 15 16 15 15 14 14 14 13 14 14 14 15 15 16 16 15 15 15 14 14 13 13 11 9 12 19 19 17 17 14 15 16 16 16 17 15
24 20 18 18 18 16 16 16 16 15 16 14 13 14 14 14 14 14 14 14 15 15 14 13 14 13 13 13 12 11 12 12 17 18 17 17 13 17 18 17 17 16 16
23 19 17 18 18 17 16 16 16 16 16 14 13 13 13 13 13 14 14 14 13 13 12 11 11 11 11 11 9 7 7 16 17 17 16 15 13 16 16 15 15 16 15
25 19 17 18 18 17 17 16 16 15 15 14 13 13 12 13 14 14 14 13 13 13 12 11 10 9 9 8 7 7 10 21 18 16 15 13 14 16 15 15 14 14 13
25 20 15 15 17 17 16 16 16 15 15 15 14 13 13 14 14 14 14 13 12 12 10 10 9 9 8 8 7 8 8 14 16 14 16 12 12 15 15 14 13 13 12
24 21 18 15 15 14 13 16 16 15 16 15 13 13 12 13 14 13 11 11 11 10 9 8 7 6 3 4 4 10 9 12 15 14 12 12 13 14 14 13 12 12 11
23 24 20 17 16 16 13 14 15 15 14 14 12 11 11 9 12 9 11 11 10 9 8 7 7 5 4 7 6 4 6 11 12 11 9 14 12 13 13 11 12 10 10
27 25 22 20 19 18 14 13 12 12 11 11 10 10 9 6 11 11 9 8 9 9 7 6 8 6 5 8 10 4 4 13 12 11 11 13 13 12 12 11 10 10 8
29 24 23 22 20 17 17 13 12 12 11 10 12 9 5 6 12 9 8 5 4 6 6 6 9 4 6 7 10 3 8 13 11 10 13 14 12 11 10 10 10 9 8
26 30 27 22 20 18 16 15 15 14 12 11 12 6 5 6 10 8 7 6 4 6 6 9 8 7 9 10 12 6 16 13 11 9 12 13 12 10 10 10 9 8 7
27 28 22 20 18 17 16 12 13 13 11 9 12 16 13 5 4 7 8 6 3 4 9 10 10 11 12 8 4 19 16 16 14 11 11 13 12 11 9 8 8 7 6
30 26 21 21 18 14 14 10 9 10 11 14 13 15 9 6 9 7 10 7 6 10 8 6 12 14 9 1 12 18 16 15 15 14 13 12 11 10 10 9 9 7 6
26 25 25 22 18 12 14 7 11 11 10 13 14 14 11 8 11 7 10 12 8 9 9 5 6 7 8 6 8 8 14 14 15 15 13 12 11 12 11 10 9 9 7
26 25 22 18 19 15 9 7 6 11 14 17 16 14 17 10 11 9 6 6 2 6 1 3 5 11 7 9 10 8 15 15 15 14 14 13 13 10 12 12 11 10 9
28 26 23 22 22 16 11 8 5 6 9 11 15 12 11 12 10 8 3 5 1 3 1 1 4 11 9 10 12 11 8 10 13 13 14 12 14 14 11 13 12 11 9
27 25 21 22 21 17 13 9 7 4 1 7 15 12 11 10 12 7 6 5 7 7 3 1 3 4 8 13 10 8 7 10 12 13 14 14 15 14 13 12 12 12 11
27 25 22 23 22 17 14 12 9 9 9 10 14 15 12 9 10 8 5 7 5 5 3 4 3 6 4 9 6 2 4 8 11 11 14 15 13 14 13 12 13 11 11
28 26 23 24 23 19 16 11 8 10 7 14 10 7 10 12 10 8 7 5 8 5 5 4 4 3 4 1 4 3 1 3 4 4 13 12 14 14 14 14 15 14 13
28 28 24 26 23 20 19 13 5 7 5 5 10 11 12 14 12 9 6 8 6 4 5 2 4 5 3 2 3 4 2 1 1 1 9 9 9 15 15 15 16 15 15
29 26 25 26 24 21 21 17 13 12 11 9 15 14 15 18 13 10 8 9 9 6 7 5 2 2 3 1 2 2 3 4 3 2 1 5 6 7 14 11 13 13 12
30 28 26 26 24 22 19 19 17 13 14 13 15 20 15 15 16 15 12 10 9 6 6 7 2 3 2 0 3 2 5 4 2 0 1 6 7 7 13 12 15 16 14
29 28 27 27 28 23 23 18 21 18 14 12 20 18 17 15 15 17 16 12 10 7 6 6 5 4 3 3 1 1 2 2 1 5 5 6 9 7 14 12 11 17 18
Wind_Direction
141 141 146 142 135 120 112 131 124 115 113 108 105 106 101 104 103 98 95 91 94 95 95 94 90 90 91 91 89 89 91 92 93 88 82 85 75 104 94 90 89 88 86
135 141 148 139 129 116 115 120 123 123 114 114 117 107 104 103 104 96 97 92 90 92 94 96 95 96 95 96 95 98 98 102 104 95 90 87 84 82 85 88 87 88 90
127 133 134 134 125 121 117 114 121 120 120 123 116 109 107 100 103 95 94 99 101 95 102 103 107 99 94 95 95 98 99 103 106 100 99 91 85 85 88 88 88 87 92
127 128 132 133 126 124 117 116 122 123 123 121 115 112 109 106 97 100 95 99 93 94 100 99 98 101 98 92 93 97 98 109 120 119 95 85 88 89 89 91 93 94 93
132 126 136 133 134 131 126 124 122 125 125 119 119 115 110 104 102 100 97 95 91 95 95 98 105 103 101 99 101 106 110 105 91 93 87 87 88 96 97 97 93 96 94
119 122 129 125 124 124 124 132 130 131 121 119 120 118 112 108 106 103 101 100 103 101 104 103 99 107 109 113 105 99 92 122 98 91 89 92 95 96 94 95 97 99 98
118 126 128 124 125 125 124 123 127 123 122 126 122 121 110 114 110 112 109 111 105 101 100 108 113 110 105 105 104 91 109 109 92 92 92 91 95 100 100 101 103 99 98
126 125 122 124 124 127 128 127 124 126 128 125 126 122 121 112 106 111 117 115 109 107 106 107 111 124 118 115 137 101 82 96 99 95 93 95 103 104 101 100 101 103 104
124 122 127 131 131 129 125 128 129 131 130 128 132 127 120 115 114 117 118 117 117 117 112 116 121 125 132 169 127 65 59 99 110 109 106 105 115 112 111 110 112 110 106
129 133 134 132 130 129 133 131 132 134 134 135 135 134 131 119 113 117 122 122 119 117 112 103 102 93 54 7 78 104 93 93 94 101 114 120 122 117 113 117 113 107 109
139 141 145 152 148 134 132 138 140 138 140 144 145 141 134 130 120 114 127 128 122 116 106 106 100 83 54 13 355 88 131 128 108 115 123 128 124 119 117 112 107 108 108
148 151 152 150 144 141 139 148 149 151 155 159 150 157 171 161 138 122 122 128 134 132 124 109 92 59 38 344 340 347 267 128 125 130 129 126 126 125 120 120 122 119 113
159 152 153 158 157 146 152 165 167 167 176 170 154 163 171 106 107 111 118 128 137 153 161 125 75 57 348 329 300 287 109 117 131 125 130 129 124 134 132 132 129 125 118
160 148 156 157 156 151 159 169 174 179 178 167 157 149 125 142 96 139 127 153 168 197 188 136 137 192 217 269 272 237 142 124 115 126 133 135 136 140 142 141 134 134 133
137 147 154 146 144 153 162 165 180 175 160 174 119 119 117 88 146 116 84 86 282 287 188 166 199 210 188 235 115 114 126 124 131 134 143 147 150 152 152 149 145 147 148
139 149 126 130 127 134 143 154 157 160 161 157 136 127 150 163 168 159 141 176 202 209 224 189 188 211 224 221 96 107 130 141 142 149 155 156 159 170 168 170 165 170 167
141 143 131 136 142 130 158 158 156 212 205 160 150 146 139 153 168 140 139 197 199 213 220 224 222 159 177 118 110 103 148 152 148 160 167 168 175 180 188 188 185 186 185
139 144 142 141 148 156 156 140 161 127 117 131 145 153 160 140 119 127 172 130 238 270 233 126 77 158 132 168 150 159 144 161 166 166 168 179 183 183 200 199 200 203 205
146 148 152 150 146 161 167 146 128 104 111 152 147 146 138 136 124 111 94 115 16 91 20 35 68 140 159 143 166 167 153 185 161 175 183 180 187 194 199 203 207 212 217
152 154 147 150 156 163 167 152 139 134 59 159 152 157 142 139 143 156 165 197 166 78 34 282 193 141 157 164 167 196 205 205 181 189 188 190 196 185 200 200 204 214 220
152 158 153 155 160 154 170 180 167 189 154 129 141 154 144 155 150 148 148 143 116 135 128 61 74 47 84 178 104 228 227 207 207 204 210 196 197 194 200 198 203 209 214
158 164 160 162 163 162 174 182 187 179 168 150 159 175 163 173 162 160 166 172 158 161 72 90 98 46 30 88 133 116 58 317 273 201 209 204 202 192 203 199 202 205 205
162 167 166 165 167 163 180 188 186 170 118 116 170 178 199 180 169 166 173 151 138 99 157 167 122 90 353 330 162 142 134 182 319 291 183 209 159 184 205 201 203 204 202
172 169 164 163 170 170 183 193 199 182 188 182 177 193 189 177 170 175 174 151 145 154 182 194 168 164 128 180 311 241 176 163 166 174 229 207 221 183 192 203 197 192 184
171 176 169 163 173 180 182 192 199 197 195 181 176 188 182 177 174 177 180 162 164 151 174 160 180 214 141 106 257 279 232 229 208 132 303 212 251 231 209 202 211 198 207
172 176 177 167 178 182 187 192 200 204 206 174 180 170 176 181 186 180 181 175 173 178 206 199 185 196 211 259 213 313 240 200 172 236 252 223 222 238 223 219 195 204 207